CW4185 Weather Reports


time (UTC)temp
C
wind
direction
speed
KPH
gust
KPH
rain 1hr
cm
rain 24hr
cm
rain mn
cm
humidity
%
barometer
mb
20260503002147 21 25 6.4 11.3 0.00 0.00 1.73 40 1015.9
20260503001646 21 2 4.8 20.9 0.00 0.00 1.73 39 1015.9
20260503001147 21 29 11.3 16.1 0.00 0.00 1.73 39 1015.9
20260503000648 21 355 8.0 17.7 0.00 0.00 1.73 38 1015.9
20260503000146 22 336 8.0 24.1 0.00 0.00 1.73 38 1015.9
20260502235646 22 353 11.3 22.5 0.00 0.00 1.73 38 1015.9
20260502235146 22 301 8.0 17.7 0.00 0.00 1.73 38 1015.6
20260502234647 22 359 11.3 24.1 0.00 0.00 1.73 37 1015.6
20260502234146 22 8 6.4 19.3 0.00 0.00 1.73 37 1015.2
20260502233647 22 337 6.4 17.7 0.00 0.00 1.73 37 1015.2
20260502233146 22 349 12.9 17.7 0.00 0.00 1.73 38 1015.2
20260502232647 22 1 6.4 19.3 0.00 0.00 1.73 37 1015.2
20260502232146 22 6 6.4 19.3 0.00 0.00 1.73 37 1015.6
20260502231646 22 332 12.9 19.3 0.00 0.00 1.73 36 1015.2
20260502231147 22 337 9.7 16.1 0.00 0.00 1.73 36 1015.2
20260502230646 22 321 6.4 12.9 0.00 0.00 1.73 37 1015.2
20260502230146 22 8 17.7 20.9 0.00 0.00 1.73 37 1014.9
20260502225648 22 331 11.3 20.9 0.00 0.00 1.73 37 1015.2
20260502225146 22 22 17.7 24.1 0.00 0.00 1.73 37 1014.9
20260502224647 22 350 8.0 24.1 0.00 0.00 1.73 37 1015.2
20260502224146 22 19 9.7 17.7 0.00 0.00 1.73 38 1014.9
20260502223646 22 312 8.0 12.9 0.00 0.00 1.73 38 1014.9
20260502223146 22 345 6.4 17.7 0.00 0.00 1.73 37 1014.9
20260502222646 22 315 6.4 19.3 0.00 0.00 1.73 38 1014.9
20260502222146 22 338 8.0 14.5 0.00 0.00 1.73 38 1014.6
20260502221646 22 5 11.3 16.1 0.00 0.00 1.73 37 1014.9
20260502221146 22 5 11.3 16.1 0.00 0.00 1.73 37 1014.9
20260502220646 22 342 9.7 20.9 0.00 0.00 1.73 38 1014.9
20260502220146 22 22 11.3 24.1 0.00 0.00 1.73 37 1014.9
20260502215646 22 22 14.5 24.1 0.00 0.00 1.73 37 1014.9
20260502215146 22 13 11.3 22.5 0.00 0.00 1.73 38 1014.9
20260502214646 22 334 19.3 24.1 0.00 0.00 1.73 38 1014.9
20260502214146 22 305 9.7 25.7 0.00 0.00 1.73 38 1014.9
20260502213646 22 337 9.7 17.7 0.00 0.00 1.73 39 1014.9
20260502213146 22 341 9.7 24.1 0.00 0.00 1.73 37 1014.9
20260502212646 22 26 17.7 19.3 0.00 0.00 1.73 38 1014.9
20260502212146 22 334 12.9 25.7 0.00 0.00 1.73 40 1014.9
20260502211647 22 8 12.9 22.5 0.00 0.00 1.73 41 1014.6
20260502211146 22 354 6.4 25.7 0.00 0.00 1.73 39 1014.6
20260502210646 22 2 14.5 22.5 0.00 0.00 1.73 40 1014.9
20260502210147 22 330 11.3 24.1 0.00 0.00 1.73 40 1014.9
20260502205647 22 339 12.9 29.0 0.00 0.00 1.73 40 1014.9
20260502205147 22 320 20.9 27.4 0.00 0.00 1.73 42 1014.9
20260502204646 22 46 19.3 22.5 0.00 0.00 1.73 42 1014.9
20260502204147 22 353 19.3 32.2 0.00 0.00 1.73 42 1014.9
20260502203647 22 15 20.9 25.7 0.00 0.00 1.73 44 1014.9
20260502203146 22 35 12.9 22.5 0.00 0.00 1.73 43 1014.9
20260502202646 22 340 11.3 25.7 0.00 0.00 1.73 45 1014.6
20260502202147 22 353 11.3 14.5 0.00 0.00 1.73 47 1014.9
20260502201646 22 339 20.9 22.5 0.00 0.00 1.73 49 1014.9
20260502201146 22 347 11.3 27.4 0.00 0.00 1.73 49 1014.9
20260502200646 22 16 8.0 30.6 0.00 0.00 1.73 49 1015.2
20260502200147 22 352 12.9 24.1 0.00 0.00 1.73 51 1015.2
20260502195646 22 331 14.5 27.4 0.00 0.00 1.73 53 1015.2
20260502195146 22 339 8.0 22.5 0.00 0.00 1.73 53 1015.2
20260502194646 22 342 8.0 24.1 0.00 0.00 1.73 53 1015.2
20260502194149 21 331 11.3 22.5 0.00 0.00 1.73 53 1015.2
20260502193647 21 358 8.0 37.0 0.00 0.00 1.73 55 1015.2
20260502193146 22 1 16.1 25.7 0.00 0.00 1.73 53 1015.6
20260502192646 22 11 11.3 29.0 0.00 0.00 1.73 55 1015.6
20260502192147 21 50 3.2 19.3 0.00 0.00 1.73 57 1015.6
20260502191647 21 11 11.3 27.4 0.00 0.00 1.73 56 1015.2
20260502191146 21 352 12.9 29.0 0.00 0.00 1.73 55 1015.2
20260502190647 22 310 22.5 25.7 0.00 0.00 1.73 56 1015.2
20260502190146 21 12 8.0 14.5 0.00 0.00 1.73 58 1015.6
20260502185646 21 344 11.3 22.5 0.00 0.00 1.73 59 1015.6
20260502185146 21 10 14.5 24.1 0.00 0.00 1.73 56 1015.6
20260502184646 21 332 11.3 16.1 0.00 0.00 1.73 58 1015.2
20260502184146 21 309 12.9 19.3 0.00 0.00 1.73 59 1015.2
20260502183646 21 42 11.3 33.8 0.00 0.00 1.73 58 1015.6
20260502183146 21 28 6.4 17.7 0.00 0.00 1.73 59 1015.6
20260502182647 21 334 8.0 24.1 0.00 0.00 1.73 60 1015.6
20260502182146 21 334 9.7 20.9 0.00 0.00 1.73 60 1015.6
20260502181647 21 326 14.5 24.1 0.00 0.00 1.73 58 1015.6
20260502181147 21 21 16.1 24.1 0.00 0.00 1.73 59 1015.6
20260502180646 21 1 9.7 24.1 0.00 0.00 1.73 59 1015.6
20260502180146 20 12 12.9 30.6 0.00 0.00 1.73 59 1015.6
20260502170146 20 38 8.0 19.3 0.00 0.00 1.73 66 1016.3
20260502164157 18 350 16.1 22.5 0.00 0.00 1.73 71 1016.3
20260502163646 18 22 17.7 27.4 0.00 0.00 1.73 70 1016.3
20260502163147 18 358 8.0 20.9 0.00 0.00 1.73 70 1016.3
20260502162646 18 326 8.0 19.3 0.00 0.00 1.73 70 1016.3
20260502162146 18 13 9.7 20.9 0.00 0.00 1.73 71 1016.3
20260502161647 18 357 14.5 25.7 0.00 0.00 1.73 72 1016.3
20260502161147 18 34 14.5 22.5 0.00 0.00 1.73 73 1016.6
20260502160647 18 357 16.1 22.5 0.00 0.00 1.73 74 1015.9
20260502160146 17 20 17.7 24.1 0.00 0.00 1.73 75 1016.3
20260502152146 17 354 3.2 12.9 0.00 0.00 1.73 78 1016.3
20260502151646 17 36 8.0 14.5 0.00 0.00 1.73 78 1016.3
20260502151146 17 325 11.3 22.5 0.00 0.00 1.73 78 1016.3
20260502150647 17 331 9.7 17.7 0.00 0.00 1.73 78 1016.3
20260502150148 16 9 9.7 20.9 0.00 0.00 1.73 78 1016.3
20260502130158 15 359 9.7 27.4 0.00 0.00 1.73 82 1014.9
20260502123647 14 23 11.3 25.7 0.00 0.00 1.73 86 1014.2
20260502123148 14 25 9.7 16.1 0.00 0.00 1.73 87 1014.2
20260502122646 14 24 9.7 19.3 0.00 0.00 1.73 87 1014.2
20260502122146 14 35 14.5 33.8 0.00 0.00 1.73 87 1014.2
20260502121646 14 24 12.9 29.0 0.00 0.00 1.73 87 1014.2
20260502121147 14 39 19.3 29.0 0.00 0.00 1.73 89 1014.2
20260502120646 14 5 16.1 22.5 0.00 0.00 1.73 90 1014.2
20260502120146 13 12 14.5 27.4 0.00 0.00 1.73 90 1014.2
20260502115647 13 25 19.3 32.2 0.00 0.00 1.73 90 1013.9
20260502115146 14 346 6.4 30.6 0.00 0.00 1.73 91 1013.5
20260502114647 14 37 14.5 24.1 0.00 0.00 1.73 90 1013.5
20260502114146 14 24 19.3 33.8 0.00 0.00 1.73 90 1013.5
20260502113647 14 34 17.7 30.6 0.00 0.00 1.73 90 1013.5
20260502113146 14 10 8.0 25.7 0.00 0.00 1.73 91 1013.5
20260502112647 13 24 8.0 24.1 0.00 0.00 1.73 92 1013.2
20260502112147 13 24 9.7 32.2 0.00 0.00 1.73 93 1013.2
20260502111647 13 46 9.7 22.5 0.00 0.00 1.73 94 1013.2
20260502111147 13 351 9.7 17.7 0.00 0.00 1.73 95 1013.2
20260502110646 13 43 12.9 20.9 0.05 0.00 1.73 95 1012.9
20260502110146 13 23 17.7 25.7 0.05 0.00 1.73 95 1013.2
20260502105647 13 35 17.7 29.0 0.00 0.00 1.70 96 1012.9
20260502105148 13 9 12.9 27.4 0.00 0.00 1.70 96 1012.9
20260502104646 13 38 9.7 19.3 0.00 0.00 1.70 95 1012.9
20260502104147 13 35 20.9 30.6 0.00 0.00 1.70 95 1012.9
20260502103646 13 33 16.1 27.4 0.00 0.00 1.70 95 1012.9
20260502103152 13 20 20.9 24.1 0.05 0.00 1.70 95 1012.9
20260502102650 13 15 9.7 25.7 0.05 0.00 1.70 96 1012.5
20260502102146 13 48 4.8 27.4 0.00 0.00 1.70 95 1012.5
20260502101651 13 2 8.0 29.0 0.00 0.00 1.70 94 1012.5
20260502101146 14 18 6.4 16.1 0.00 0.00 1.70 93 1012.5
20260502100647 14 30 17.7 27.4 0.00 0.00 1.70 92 1012.5
20260502100147 14 358 9.7 20.9 0.00 0.00 1.70 93 1012.5
20260502091146 13 0 14.5 20.9 0.00 0.00 1.70 95 1012.2
20260502090648 13 74 4.8 20.9 0.00 0.00 1.70 95 1012.5
20260502090149 13 76 4.8 11.3 0.00 0.00 1.70 96 1012.5
20260502071146 14 4 6.4 24.1 1.85 0.00 1.55 98 1011.2
20260502070646 14 315 12.9 14.5 0.43 0.00 1.27 98 1012.9
20260502070149 14 355 4.8 17.7 0.61 0.00 1.22 98 1012.2
20260502065647 14 45 11.3 17.7 0.48 0.00 1.19 98 1011.5
20260502065146 14 17 16.1 25.7 0.48 0.00 1.14 98 1011.5
20260502064647 14 23 16.1 19.3 0.43 0.00 1.09 98 1011.9
20260502064146 15 0 11.3 16.1 0.30 0.00 1.04 98 1012.2
20260502063647 14 1 12.9 22.5 0.36 0.00 1.04 98 1011.9
20260502063146 15 352 12.9 17.7 0.13 0.00 0.99 98 1011.9
20260502062647 14 324 11.3 14.5 0.00 0.00 0.97 99 1012.2
20260502062146 14 354 6.4 22.5 0.00 0.00 0.97 99 1011.9
20260502061646 15 1 9.7 17.7 0.00 0.00 0.97 99 1011.9
20260502061147 15 347 8.0 19.3 0.05 0.00 0.97 99 1011.9
20260502060646 15 22 12.9 22.5 0.05 0.00 0.97 99 1011.9
20260502060146 15 356 4.8 27.4 0.05 0.00 0.97 99 1011.9
20260502055646 15 1 19.3 20.9 0.18 0.00 0.97 99 1011.9
20260502055146 15 7 8.0 22.5 0.53 0.00 0.94 99 1012.2
20260502054646 15 353 4.8 14.5 2.16 0.00 0.94 99 1012.2
20260502054146 15 339 6.4 14.5 4.55 0.00 0.86 99 1012.5
20260502053648 15 5 11.3 19.3 1.98 0.00 0.43 99 1011.9
20260502053146 15 0 4.8 12.9 0.13 0.00 0.10 99 1012.5
20260502052647 15 18 4.8 17.7 0.23 0.00 0.10 99 1011.5
20260502052147 15 2 17.7 22.5 0.43 0.00 0.08 98 1011.2
20260502051646 15 31 4.8 12.9 0.23 0.00 0.05 98 1011.9
20260502051146 15 317 8.0 11.3 0.05 0.00 0.00 98 1012.2
20260502050648 15 48 6.4 14.5 0.05 0.00 0.00 98 1012.2
20260502050147 15 353 1.6 11.3 0.13 0.00 0.00 98 1012.9
20260502045646 15 0 8.0 16.1 0.18 0.00 4.14 98 1011.5
20260502045147 15 26 11.3 19.3 0.05 0.00 4.11 98 1011.9
20260502044647 15 34 4.8 17.7 0.00 0.00 4.09 98 1011.9
20260502044147 15 8 11.3 16.1 0.05 0.00 4.09 98 1011.9
20260502043647 15 45 8.0 27.4 0.05 0.00 4.09 99 1011.5
20260502043147 15 12 9.7 14.5 0.05 0.00 4.09 99 1011.5
20260502042646 15 63 9.7 19.3 0.13 0.00 4.09 99 1011.2
20260502042147 15 44 14.5 19.3 0.05 0.00 4.09 99 1010.8
20260502041647 15 5 8.0 16.1 0.00 0.00 4.06 99 1011.2
20260502041146 15 23 11.3 16.1 0.05 0.00 4.06 99 1011.2
20260502040646 15 336 11.3 17.7 0.05 0.00 4.06 99 1011.2
20260502040147 15 36 12.9 20.9 0.05 0.00 4.06 99 1011.2
20260502035646 15 31 8.0 17.7 0.05 0.00 4.06 99 1010.8
20260502034704 15 47 12.9 19.3 0.18 0.00 4.04 99 1011.9
20260502034147 15 51 6.4 14.5 0.23 0.00 4.04 99 1011.9
20260502033648 15 11 6.4 12.9 0.18 0.00 4.01 98 1011.9
20260502033146 15 32 12.9 12.9 0.13 0.00 3.99 98 1011.9
20260502032647 15 25 6.4 16.1 0.18 0.00 3.99 98 1012.2
20260502032146 15 66 9.7 16.1 0.18 0.00 3.99 98 1011.9
20260502031646 15 21 8.0 17.7 0.05 0.00 3.96 98 1011.9
20260502031147 15 21 6.4 12.9 0.00 0.00 3.94 98 1011.5
20260502030646 15 40 8.0 16.1 0.00 0.00 3.94 98 1011.5
20260502030147 15 31 4.8 16.1 0.00 0.00 3.94 98 1011.5
20260502025646 15 24 4.8 14.5 0.00 0.00 3.94 98 1011.5
20260502025146 15 21 6.4 11.3 0.00 0.00 3.94 98 1011.9
20260502024646 15 35 4.8 8.0 0.00 0.00 3.94 98 1011.5
20260502024147 15 50 8.0 12.9 0.00 0.00 3.94 98 1011.2
20260502023648 15 67 12.9 20.9 0.00 0.00 3.94 98 1010.8
20260502023147 15 65 8.0 20.9 0.00 0.00 3.94 97 1011.2
20260502022647 15 57 9.7 17.7 0.00 0.00 3.94 97 1011.2
20260502022146 15 29 9.7 19.3 0.00 0.00 3.94 97 1011.2
20260502021646 15 21 12.9 25.7 0.00 0.00 3.94 97 1010.8
20260502021147 15 33 8.0 24.1 0.00 0.00 3.94 97 1010.8
20260502020647 15 33 9.7 22.5 0.00 0.00 3.94 98 1010.8
20260502020146 15 341 8.0 20.9 0.00 0.00 3.94 98 1010.8
20260502015646 15 34 11.3 24.1 0.00 0.00 3.94 98 1010.5
20260502015146 15 37 4.8 19.3 0.00 0.00 3.94 99 1010.8
20260502014647 15 34 8.0 22.5 0.00 0.00 3.94 99 1010.8
20260502014146 15 354 6.4 19.3 0.13 0.00 3.94 99 1010.5
20260502013646 15 38 14.5 24.1 0.71 0.00 3.94 99 1011.2
20260502013147 15 37 4.8 16.1 0.61 0.00 3.91 98 1011.2
20260502012646 15 42 11.3 19.3 0.13 0.00 3.84 98 1011.5
20260502012146 15 36 9.7 16.1 0.23 0.00 3.81 98 1011.2
20260502011646 15 51 11.3 22.5 0.53 0.00 3.81 98 1011.2
20260502011146 15 28 9.7 20.9 0.43 0.00 3.76 98 1011.2
20260502010646 15 48 14.5 19.3 0.13 0.00 3.73 98 1011.2
20260502010147 15 0 14.5 17.7 0.00 0.00 3.71 98 1011.9
20260502005647 15 0 12.9 25.7 0.00 0.00 3.71 98 1011.2
20260502005146 15 38 9.7 22.5 0.00 0.00 3.71 98 1011.2
20260502004647 15 19 11.3 24.1 0.00 0.00 3.71 98 1011.2
20260502004146 15 13 20.9 27.4 0.00 0.00 3.71 98 1011.2
20260502003646 15 29 9.7 17.7 0.05 0.00 3.71 98 1011.2
20260502003146 15 27 16.1 19.3 0.05 0.00 3.71 98 1010.8
20260502002646 15 42 8.0 20.9 0.13 0.00 3.68 99 1010.8